User: anonymous   Login
Location: Estes Park
(40.3770°N, 105.5210°W)
Time: 00:32:19
(UTC-06:00)
Language:

ISS - Orbit

View from above orbital plane
View from above orbital plane
View from above satellite
View from above satellite

Ground track
Ground track

The orbit data is extracted from the following two-line orbital elements,

1 25544U 98067A   18226.52863097  .00016717  00000-0  10270-3 0  9017
2 25544  51.6403  87.9598 0005574  54.5024 305.6648 15.53809585  7589
Epoch (UTC): 14 August 2018 12:41:13
Eccentricity: 0.0005574
inclination: 51.6403°
perigee height: 402 km
apogee height: 409 km
right ascension of ascending node: 87.9598°
argument of perigee: 54.5024°
revolutions per day: 15.53809585
mean anomaly at epoch: 305.6648°
orbit number at epoch: 758

The dashed part of the orbit path shows where the satellite is in the earth's shadow,  

DLR